Вернуться в каталог

ECHOSTAR 105/SES 11

АктивенСвязьGEO
NORAD 42967·PAYLOAD·🇱🇺 Luxembourg

Запущен Oct 11, 2017 с Cape Canaveral Space Force Station

Loading…

TLE

СвежийSource: CelesTrak SupGP

Эпоха: Sep 13, 2026, 23:30 UTC

1 42967C 17063A   26256.97916667  .00000001  00000+0  00000+0 0  2562
2 42967   0.0451 310.3348 0002734 200.6596  89.5174  1.00271812    13

Отслеживайте ECHOSTAR 105/SES 11 в реальном времени с AllMySat

Download on the App Store